This is the latest recevied weather packets stored in our database for station/object 4S6DRJ-13. If no packets are shown the sender has not sent any weather packets the latest 10 day(s).
| Time | Temp. | Humidity | Pressure | Rain* | Wind** | Luminosity | Snow |
|---|---|---|---|---|---|---|---|
| 1788190129 | 28.33° C | 81% | 1009.3 hPa | 0 mm | 0.45 m/s, 265° | 0 W/m² | - |
| 1788190068 | 28.33° C | 81% | 1009.5 hPa | 0 mm | 0 m/s | 0 W/m² | - |
| 1788190007 | 28.33° C | 81% | 1009.4 hPa | 0 mm | 0.45 m/s, 241° | 0 W/m² | - |
| 1788189946 | 28.33° C | 81% | 1009.5 hPa | 0 mm | 0.45 m/s, 133° | 0 W/m² | - |
| 1788189885 | 28.33° C | 81% | 1009.5 hPa | 0 mm | 0.45 m/s, 279° | 0 W/m² | - |
| 1788189824 | 28.33° C | 80% | 1009.4 hPa | 0 mm | 0.89 m/s, 324° | 0 W/m² | - |
| 1788189763 | 28.33° C | 80% | 1009.4 hPa | 0 mm | 0 m/s | 0 W/m² | - |
| 1788189702 | 28.33° C | 80% | 1009.4 hPa | 0 mm | 0.45 m/s, 252° | 0 W/m² | - |
| 1788189641 | 28.33° C | 80% | 1009.3 hPa | 0 mm | 0.89 m/s, 239° | 0 W/m² | - |
| 1788189580 | 28.33° C | 80% | 1009.4 hPa | 0 mm | 0.89 m/s, 195° | 0 W/m² | - |
| 1788189519 | 28.33° C | 80% | 1009.4 hPa | 0 mm | 1.79 m/s, 236° | 0 W/m² | - |
| 1788189458 | 28.33° C | 80% | 1009.3 hPa | 0 mm | 0.89 m/s, 223° | 0 W/m² | - |
| 1788189397 | 28.33° C | 80% | 1009.4 hPa | 0 mm | 0 m/s | 0 W/m² | - |
| 1788189336 | 28.33° C | 80% | 1009.4 hPa | 0 mm | 0 m/s | 0 W/m² | - |
| 1788189275 | 28.33° C | 80% | 1009.4 hPa | 0 mm | 2.24 m/s, 238° | 0 W/m² | - |
| 1788189214 | 28.33° C | 80% | 1009.3 hPa | 0 mm | 0.89 m/s, 212° | 0 W/m² | - |
| 1788189153 | 28.33° C | 80% | 1009.2 hPa | 0 mm | 1.34 m/s, 211° | 0 W/m² | - |
| 1788189092 | 28.33° C | 80% | 1009.3 hPa | 0 mm | 1.79 m/s, 151° | 0 W/m² | - |
| 1788189031 | 28.33° C | 80% | 1009.4 hPa | 0 mm | 1.79 m/s, 221° | 0 W/m² | - |
| 1788188970 | 28.33° C | 80% | 1009.3 hPa | 0 mm | 2.24 m/s, 249° | 0 W/m² | - |
| 1788188909 | 28.33° C | 80% | 1009.3 hPa | 0 mm | 0.45 m/s, 355° | 0 W/m² | - |
| 1788188848 | 28.33° C | 80% | 1009.4 hPa | 0 mm | 0.89 m/s, 234° | 0 W/m² | - |
| 1788188786 | 28.33° C | 81% | 1009.3 hPa | 0 mm | 0.45 m/s, 231° | 0 W/m² | - |
| 1788188726 | 28.33° C | 81% | 1009.4 hPa | 0 mm | 0.89 m/s, 256° | 0 W/m² | - |
| 1788188672 | 28.33° C | 81% | 1009.2 hPa | 0 mm | 0.45 m/s, 290° | 0 W/m² | - |
* Rain latest hour (hover to see other rain measurements)
** Current wind speed in m/s (hover to see current wind gust speed)